Fosston, MN

7:29 AM CDT on September 25, 2016 (GMT -0500)
Fosston Municipal

Weather History for KFSE - March, 2012

Change the Weather History Date:

Monday, March 5, 2012

  Actual Average Record
Temperature  
Mean Temperature 20 °F -  
Max Temperature 35 °F 28 °F 43 °F (1968)
Min Temperature 6 °F 5 °F -27 °F (1997)
Degree Days  
Heating Degree Days 44    
Moisture  
Dew Point 16 °F    
Average Humidity 84    
Maximum Humidity 93    
Minimum Humidity 60    
Precipitation  
Precipitation 0.00 in - - ()
Sea Level Pressure  
Sea Level Pressure 29.90 in    
Wind  
Wind Speed 9 mph (SSE)    
Max Wind Speed 22 mph    
Max Gust Speed 30 mph    
Visibility 8 miles    
Events Snow    
Averages and records for this station are not official NWS values.
T = Trace of Precipitation, MM = Missing Value Source: NWS Daily Summary

Daily Weather History Graph

Daily Weather History Graph

Search for Another Location

Airport or City:

Trip Planner

Search our weather history database for the weather conditions in past years. The results will help you decide how hot, cold, wet, or windy it might be!

Date:

Astronomy

Mar. 05, 2012 Rise Set
Actual Time 6:54 AM CST 6:14 PM CST
Civil Twilight 6:24 AM CST 6:45 PM CST
Nautical Twilight 5:48 AM CST 7:21 PM CST
Astronomical Twilight 5:12 AM CST 7:57 PM CST
Moon 3:25 PM CST (3/5) 5:05 AM CST (3/5)
Length of Visible Light 12h 21m
Length of Day
11h 19m
Waxing Gibbous, 91% of the Moon is Illuminated
Mar 5
Waxing Gibbous
Mar 8
Full
Mar 14
Last Quarter
Mar 22
New
Mar 30
First Quarter

Hourly Weather History & Observations

Time (CST) Temp. Windchill Dew Point Humidity Pressure Visibility Wind Dir Wind Speed Gust Speed Precip Events Conditions
12:15 AM 10.4 °F -0.4 °F 8.6 °F 92% 30.02 in 2.5 mi SSW 6.9 mph - N/A Snow Light Snow
12:35 AM 10.4 °F 0.8 °F 8.6 °F 92% 30.02 in 2.5 mi South 5.8 mph - N/A Snow Light Snow
1:15 AM 10.4 °F -0.4 °F 8.6 °F 92% 30.02 in 2.5 mi South 6.9 mph - N/A Snow Light Snow
1:35 AM 10.4 °F -1.5 °F 8.6 °F 92% 30.02 in 4.0 mi South 8.1 mph - N/A   Overcast
1:56 AM 10.4 °F 0.8 °F 8.6 °F 92% 30.03 in 5.0 mi SSW 5.8 mph - N/A Snow Light Snow
2:15 AM 10.4 °F -0.4 °F 8.6 °F 92% 30.03 in 4.0 mi South 6.9 mph - N/A   Overcast
2:35 AM 10.4 °F 0.8 °F 8.6 °F 92% 30.03 in 3.0 mi South 5.8 mph - N/A   Overcast
2:55 AM 10.4 °F 0.8 °F 8.6 °F 92% 30.01 in 3.0 mi South 5.8 mph - N/A   Overcast
3:15 AM 10.4 °F -0.4 °F 8.6 °F 92% 30.01 in 4.0 mi South 6.9 mph - N/A   Overcast
3:35 AM 8.6 °F -2.6 °F 6.8 °F 92% 30.02 in 5.0 mi South 6.9 mph - N/A   Overcast
3:56 AM 6.8 °F - 5.0 °F 92% 30.01 in 7.0 mi Calm Calm - N/A   Scattered Clouds
4:15 AM 8.6 °F - 6.8 °F 92% 30.00 in 7.0 mi Calm Calm - N/A   Clear
4:35 AM 8.6 °F 0.1 °F 6.8 °F 92% 30.00 in 10.0 mi South 4.6 mph - N/A   Clear
4:55 AM 8.6 °F 0.1 °F 6.8 °F 92% 30.01 in 10.0 mi South 4.6 mph - N/A   Clear
5:15 AM 8.6 °F -1.3 °F 6.8 °F 92% 30.01 in 10.0 mi South 5.8 mph - N/A   Clear
5:35 AM 8.6 °F -2.6 °F 6.8 °F 92% 30.00 in 10.0 mi South 6.9 mph - N/A   Clear
5:56 AM 10.4 °F -0.4 °F 8.6 °F 92% 29.99 in 10.0 mi South 6.9 mph - N/A   Clear
6:15 AM 10.4 °F 0.8 °F 8.6 °F 92% 29.99 in 10.0 mi South 5.8 mph - N/A   Clear
6:35 AM 12.2 °F 2.9 °F 10.4 °F 92% 29.99 in 10.0 mi South 5.8 mph - N/A   Clear
6:55 AM 12.2 °F 1.7 °F 10.4 °F 92% 29.98 in 10.0 mi South 6.9 mph - N/A   Clear
7:15 AM 12.2 °F 0.7 °F 10.4 °F 92% 29.97 in 7.0 mi South 8.1 mph - N/A   Clear
7:35 AM 12.2 °F 1.7 °F 10.4 °F 92% 29.98 in 10.0 mi South 6.9 mph - N/A   Clear
7:56 AM 14.0 °F 3.9 °F 12.2 °F 93% 29.98 in 10.0 mi South 6.9 mph - N/A   Scattered Clouds
8:15 AM 15.8 °F 6.1 °F 12.2 °F 86% 29.97 in 10.0 mi South 6.9 mph - N/A   Scattered Clouds
8:35 AM 15.8 °F 5.1 °F 14.0 °F 93% 29.96 in 10.0 mi South 8.1 mph - N/A   Scattered Clouds
8:55 AM 15.8 °F 5.1 °F 14.0 °F 93% 29.96 in 10.0 mi South 8.1 mph - N/A   Scattered Clouds
9:15 AM 17.6 °F 6.4 °F 15.8 °F 93% 29.95 in 10.0 mi South 9.2 mph - N/A   Clear
9:36 AM 19.4 °F 7.2 °F 15.8 °F 86% 29.94 in 1.8 mi South 11.5 mph - N/A Snow Light Snow
9:55 AM 19.4 °F 8.6 °F 17.6 °F 93% 29.92 in 1.8 mi SSE 9.2 mph - N/A Snow Light Snow
10:15 AM 21.2 °F 9.5 °F 17.6 °F 86% 29.92 in 0.8 mi SSE 11.5 mph - N/A Snow Light Snow
10:35 AM 23.0 °F 13.1 °F 19.4 °F 86% 29.90 in 0.8 mi SE 9.2 mph - N/A Snow Light Snow
10:55 AM 23.0 °F 11.7 °F 21.2 °F 93% 29.90 in 2.0 mi SE 11.5 mph - N/A Snow Light Snow
11:15 AM 24.8 °F 14.6 °F 21.2 °F 86% 29.88 in 4.0 mi SE 10.4 mph - N/A Snow Light Snow
11:36 AM 26.6 °F 16.8 °F 23.0 °F 86% 29.87 in 10.0 mi SE 10.4 mph - N/A   Overcast
11:55 AM 28.4 °F 18.5 °F 23.0 °F 80% 29.87 in 10.0 mi SSE 11.5 mph - N/A   Overcast
12:15 PM 28.4 °F 17.0 °F 23.0 °F 80% 29.85 in 10.0 mi SE 15.0 mph 20.7 mph N/A   Overcast
12:35 PM 30.2 °F 19.8 °F 23.0 °F 75% 29.82 in 10.0 mi SE 13.8 mph - N/A   Mostly Cloudy
12:55 PM 30.2 °F 21.9 °F 23.0 °F 75% 29.81 in 10.0 mi ESE 9.2 mph - N/A   Mostly Cloudy
1:15 PM 32.0 °F 21.2 °F 23.0 °F 69% 29.79 in 10.0 mi SE 16.1 mph 20.7 mph N/A   Mostly Cloudy
1:36 PM 33.8 °F 22.5 °F 21.2 °F 60% 29.77 in 7.0 mi SSE 19.6 mph 25.3 mph N/A   Mostly Cloudy
1:55 PM 33.8 °F 23.2 °F 21.2 °F 60% 29.76 in 7.0 mi SSE 17.3 mph 23.0 mph N/A   Scattered Clouds
2:15 PM 33.8 °F 22.8 °F 21.2 °F 60% 29.75 in 10.0 mi SSE 18.4 mph - N/A   Scattered Clouds
2:35 PM 33.8 °F 21.9 °F 24.8 °F 70% 29.74 in 7.0 mi South 21.9 mph 28.8 mph N/A   Overcast
2:55 PM 33.8 °F 21.9 °F 24.8 °F 70% 29.73 in 7.0 mi South 21.9 mph 29.9 mph N/A   Overcast
3:15 PM 33.8 °F 22.5 °F 24.8 °F 70% 29.73 in 10.0 mi South 19.6 mph 26.5 mph N/A   Overcast
3:55 PM 35.6 °F 24.8 °F 24.8 °F 65% 29.72 in 10.0 mi South 19.6 mph 25.3 mph N/A   Overcast
4:15 PM 35.6 °F 24.8 °F 24.8 °F 65% 29.71 in 10.0 mi South 19.6 mph - N/A   Mostly Cloudy
4:35 PM 35.6 °F 25.5 °F 24.8 °F 65% 29.71 in 10.0 mi South 17.3 mph - N/A   Scattered Clouds
4:55 PM 33.8 °F 24.3 °F 24.8 °F 70% 29.71 in 10.0 mi South 13.8 mph - N/A   Clear
5:15 PM 32.0 °F 20.5 °F 26.6 °F 80% 29.71 in 10.0 mi South 18.4 mph - N/A   Clear
5:35 PM 32.0 °F 20.5 °F 26.6 °F 80% 29.71 in 10.0 mi South 18.4 mph 24.2 mph N/A   Clear
5:55 PM 30.2 °F 18.5 °F 24.8 °F 80% 29.70 in 10.0 mi South 17.3 mph - N/A   Clear
6:15 PM 30.2 °F 19.3 °F 24.8 °F 80% 29.70 in 10.0 mi South 15.0 mph - N/A   Clear
6:35 PM 30.2 °F 20.2 °F 24.8 °F 80% 29.70 in 10.0 mi South 12.7 mph - N/A   Clear
6:55 PM 28.4 °F 17.5 °F 24.8 °F 86% 29.70 in 10.0 mi South 13.8 mph - N/A   Clear
7:15 PM 28.4 °F 17.5 °F 24.8 °F 86% 29.69 in 10.0 mi South 13.8 mph - N/A   Clear
7:35 PM 28.4 °F 18.0 °F 24.8 °F 86% 29.69 in 10.0 mi SSE 12.7 mph - N/A   Clear
7:55 PM 28.4 °F 18.5 °F 24.8 °F 86% 29.70 in 10.0 mi South 11.5 mph - N/A   Clear
8:15 PM 26.6 °F 16.2 °F 24.8 °F 93% 29.70 in 10.0 mi South 11.5 mph - N/A   Clear
8:35 PM 26.6 °F 16.8 °F 24.8 °F 93% 29.70 in 10.0 mi South 10.4 mph - N/A   Clear
8:55 PM 26.6 °F 15.7 °F 24.8 °F 93% 29.69 in 10.0 mi South 12.7 mph - N/A   Clear
9:15 PM 26.6 °F 15.7 °F 24.8 °F 93% 29.68 in 10.0 mi SSE 12.7 mph - N/A   Clear
9:35 PM 26.6 °F 16.2 °F 24.8 °F 93% 29.68 in 10.0 mi SSE 11.5 mph - N/A   Clear
9:55 PM 28.4 °F 17.5 °F 24.8 °F 86% 29.67 in 10.0 mi SSE 13.8 mph - N/A   Clear
10:15 PM 28.4 °F 18.5 °F 24.8 °F 86% 29.67 in 10.0 mi SSE 11.5 mph - N/A   Clear
10:35 PM 28.4 °F 18.5 °F 24.8 °F 86% 29.67 in 10.0 mi SSE 11.5 mph - N/A   Clear
10:55 PM 28.4 °F 18.5 °F 24.8 °F 86% 29.66 in 10.0 mi SSE 11.5 mph - N/A   Clear
11:15 PM 28.4 °F 18.0 °F 24.8 °F 86% 29.65 in 10.0 mi SSE 12.7 mph - N/A   Clear
11:35 PM 28.4 °F 17.5 °F 24.8 °F 86% 29.65 in 10.0 mi South 13.8 mph - N/A   Clear
11:55 PM 28.4 °F 18.0 °F 24.8 °F 86% 29.65 in 10.0 mi South 12.7 mph - N/A   Clear